BEIDOU IGSO 5

Last updated on Tue Apr 02 2019 03:15:24 GMT+0000 (Coordinated Universal Time)

1 37948U 11073A 19091.88952427 -.00000122 00000-0 10000-3 0 9998 2 37948 52.2750 303.1124 0056204 207.6624 95.2320 1.00270977 26992
UTC large
Height (km)
Speed (km/s)
/
Latitude / Longitude
Inclination (degrees)
Orbital Period (minutes)
Azimuth
Elevation
Range (km)
Doppler Factor

Next 0 passes for location: London (51.5072 / 0.1276)

Sorry there are no passes over London.